CAPE
1 127 767 1391 1466 1067 1040 1091 1109 1049 625 289 83 0 0 0 0 0 0 0 0 0 0 0 0 0 0 0 0 0 0 0 0 0 0 0 0 0 0 0 0 0 0
0 85 751 1295 1603 1392 1286 1169 1141 1020 448 236 19 3 2 0 0 0 0 0 0 0 0 0 0 0 0 0 0 0 0 0 0 0 0 0 0 0 0 0 0 0 0
49 171 795 1665 1892 1746 1673 1354 1268 790 297 55 4 5 4 0 0 0 0 0 0 0 0 0 0 0 0 0 0 0 0 0 0 0 0 0 0 0 0 0 0 0 0
64 233 839 1736 2151 2167 1866 1596 1157 550 199 3 4 3 2 3 0 0 0 0 0 0 0 0 0 0 0 0 0 0 0 0 0 0 0 0 0 0 0 0 0 0 0
1 180 838 1733 2062 2199 1937 1609 719 259 8 4 4 4 4 2 0 0 0 0 0 0 0 0 0 0 0 0 0 0 0 0 0 0 0 0 0 0 0 0 0 0 0
11 116 579 1642 1943 1415 1787 920 368 4 5 6 6 5 4 6 4 0 0 0 0 0 0 0 0 0 0 0 0 0 0 0 0 0 0 0 0 0 0 0 0 0 0
1 124 528 1506 1342 1053 1114 435 3 5 6 7 6 6 7 4 0 0 0 0 0 0 0 0 0 0 0 0 0 0 0 0 0 0 0 0 0 0 0 0 0 0 0
106 242 585 1130 657 495 202 5 5 4 6 8 8 7 5 1 0 0 0 0 0 0 0 0 0 0 0 0 0 0 0 0 0 0 0 0 0 0 0 0 0 0 0
200 394 792 584 301 58 5 5 7 7 6 7 6 9 0 0 0 0 0 0 0 0 0 0 0 0 0 0 0 0 0 0 0 0 0 0 0 0 0 0 0 0 0
0 261 447 321 83 5 6 6 4 7 8 8 8 1 0 0 0 0 0 0 0 0 0 0 0 0 0 0 0 0 0 0 0 0 0 0 0 0 0 0 0 0 0
11 291 148 5 3 3 4 3 3 8 9 6 3 0 0 0 0 0 0 0 0 0 0 0 0 0 0 0 0 0 0 0 0 0 0 0 0 0 0 0 0 0 0
41 2 3 2 1 2 3 3 3 5 9 0 0 0 0 0 0 0 0 0 0 0 0 0 0 0 0 0 0 0 0 0 0 0 0 0 0 0 0 0 0 0 0
3 4 3 2 2 2 4 1 1 2 0 0 0 0 0 0 0 0 0 0 0 0 0 0 0 0 0 0 0 0 0 0 0 0 0 0 0 0 0 0 0 0 0
3 3 2 2 2 1 2 1 0 0 0 0 0 0 0 0 0 0 0 0 0 0 0 0 0 0 0 0 0 0 0 0 0 0 0 0 0 0 0 0 0 0 0
1 1 2 2 2 2 1 1 0 0 0 0 0 0 0 0 0 0 0 0 0 0 0 0 0 0 0 0 0 0 0 0 0 0 0 0 0 0 0 0 0 0 0
2 2 2 7 3 1 0 0 0 0 0 0 0 0 0 0 0 0 0 0 0 0 0 0 0 0 0 0 0 0 0 0 0 0 0 0 0 0 0 0 0 0 0
7 5 2 3 2 1 0 0 0 0 0 0 0 0 0 0 0 0 0 0 0 0 0 0 0 0 0 0 0 0 0 0 0 0 0 0 0 0 0 0 0 0 0
1 2 1 0 0 0 0 0 0 0 0 0 0 0 0 0 0 0 0 0 0 0 0 0 0 0 0 0 0 0 0 0 0 0 0 0 0 0 0 0 0 0 0
0 0 0 0 0 0 0 0 0 0 0 0 0 0 0 0 0 0 0 0 0 0 0 0 0 0 0 0 0 0 0 0 0 0 0 0 0 0 0 0 0 0 0
0 0 0 0 0 0 0 0 0 0 0 0 0 0 0 0 0 0 0 0 0 0 0 0 0 0 0 0 0 0 0 0 0 0 0 0 0 0 0 0 0 0 0
0 0 0 0 0 0 0 0 0 0 0 0 0 0 0 0 0 0 0 0 0 0 0 0 0 0 0 0 0 0 0 0 0 0 0 0 0 0 0 0 0 0 0
0 0 0 0 0 0 0 0 0 0 0 0 0 0 0 0 0 0 0 0 0 0 0 0 0 0 0 0 0 0 0 0 0 0 0 0 0 0 0 0 0 0 0
0 0 0 0 0 0 0 0 0 0 0 0 0 0 0 0 0 0 0 0 0 0 0 0 0 0 0 0 0 0 0 0 0 0 0 0 0 0 0 0 0 0 0
0 0 0 0 0 0 0 0 0 0 0 0 0 0 0 0 0 0 0 0 0 0 0 0 0 0 0 0 0 0 0 0 0 0 0 0 0 0 0 0 0 0 0
0 0 0 0 0 0 0 0 0 0 0 0 0 0 0 0 0 0 0 0 0 0 0 0 0 0 0 0 0 0 0 0 0 0 0 0 0 0 0 0 0 0 0
0 0 0 0 0 0 0 0 0 0 0 0 0 0 0 0 0 0 0 0 0 0 0 0 0 0 0 0 0 0 0 0 0 0 0 0 0 0 0 0 0 0 0
CIN
-349 -284 -171 -135 -72 -106 -83 -78 -78 -58 -53 -180 -243 0 0 0 0 0 0 0 0 0 0 0 0 0 0 0 0 0 0 0 0 0 0 0 0 0 0 0 0 0 0
0 -373 -173 -162 -122 -78 -56 -47 -49 -57 -111 -212 -263 0 0 0 0 0 0 0 0 0 0 0 0 0 0 0 0 0 0 0 0 0 0 0 0 0 0 0 0 0 0
-475 -355 -153 -78 -82 -73 -47 -24 -7 -50 -192 -401 0 0 0 0 0 0 0 0 0 0 0 0 0 0 0 0 0 0 0 0 0 0 0 0 0 0 0 0 0 0 0
-420 -344 -128 -63 -32 -47 -30 -19 -6 -110 -305 -1 0 0 0 0 0 0 0 0 0 0 0 0 0 0 0 0 0 0 0 0 0 0 0 0 0 0 0 0 0 0 0
-26 -274 -129 -79 -52 -35 -30 -3 -61 -229 -107 0 0 0 0 0 0 0 0 0 0 0 0 0 0 0 0 0 0 0 0 0 0 0 0 0 0 0 0 0 0 0 0
-411 -221 -176 -71 -43 -15 -13 -41 -148 0 0 0 0 0 0 0 0 0 0 0 0 0 0 0 0 0 0 0 0 0 0 0 0 0 0 0 0 0 0 0 0 0 0
-21 -213 -180 -60 -39 -9 -28 -136 0 0 0 0 0 0 0 0 0 0 0 0 0 0 0 0 0 0 0 0 0 0 0 0 0 0 0 0 0 0 0 0 0 0 0
-167 -184 -155 -30 -39 -89 -194 -12 0 0 0 0 0 0 0 0 0 0 0 0 0 0 0 0 0 0 0 0 0 0 0 0 0 0 0 0 0 0 0 0 0 0 0
-116 -132 -68 -51 -148 -237 0 0 0 0 0 0 0 0 0 0 0 0 0 0 0 0 0 0 0 0 0 0 0 0 0 0 0 0 0 0 0 0 0 0 0 0 0
-12 -130 -55 -164 -284 0 0 0 0 0 0 0 0 0 0 0 0 0 0 0 0 0 0 0 0 0 0 0 0 0 0 0 0 0 0 0 0 0 0 0 0 0 0
-82 -71 -107 -19 0 0 0 0 0 0 0 0 0 0 0 0 0 0 0 0 0 0 0 0 0 0 0 0 0 0 0 0 0 0 0 0 0 0 0 0 0 0 0
-153 -55 0 0 0 0 0 0 0 0 0 0 0 0 0 0 0 0 0 0 0 0 0 0 0 0 0 0 0 0 0 0 0 0 0 0 0 0 0 0 0 0 0
0 0 0 0 0 0 0 0 0 0 0 0 0 0 0 0 0 0 0 0 0 0 0 0 0 0 0 0 0 0 0 0 0 0 0 0 0 0 0 0 0 0 0
0 0 0 0 0 0 0 0 0 0 0 0 0 0 0 0 0 0 0 0 0 0 0 0 0 0 0 0 0 0 0 0 0 0 0 0 0 0 0 0 0 0 0
0 0 0 0 0 0 0 0 0 0 0 0 0 0 0 0 0 0 0 0 0 0 0 0 0 0 0 0 0 0 0 0 0 0 0 0 0 0 0 0 0 0 0
0 0 0 0 0 0 0 0 0 0 0 0 0 0 0 0 0 0 0 0 0 0 0 0 0 0 0 0 0 0 0 0 0 0 0 0 0 0 0 0 0 0 0
0 0 0 0 0 0 0 0 0 0 0 0 0 0 0 0 0 0 0 0 0 0 0 0 0 0 0 0 0 0 0 0 0 0 0 0 0 0 0 0 0 0 0
0 0 0 0 0 0 0 0 0 0 0 0 0 0 0 0 0 0 0 0 0 0 0 0 0 0 0 0 0 0 0 0 0 0 0 0 0 0 0 0 0 0 0
0 0 0 0 0 0 0 0 0 0 0 0 0 0 0 0 0 0 0 0 0 0 0 0 0 0 0 0 0 0 0 0 0 0 0 0 0 0 0 0 0 0 0
0 0 0 0 0 0 0 0 0 0 0 0 0 0 0 0 0 0 0 0 0 0 0 0 0 0 0 0 0 0 0 0 0 0 0 0 0 0 0 0 0 0 0
0 0 0 0 0 0 0 0 0 0 0 0 0 0 0 0 0 0 0 0 0 0 0 0 0 0 0 0 0 0 0 0 0 0 0 0 0 0 0 0 0 0 0
0 0 0 0 0 0 0 0 0 0 0 0 0 0 0 0 0 0 0 0 0 0 0 0 0 0 0 0 0 0 0 0 0 0 0 0 0 0 0 0 0 0 0
0 0 0 0 0 0 0 0 0 0 0 0 0 0 0 0 0 0 0 0 0 0 0 0 0 0 0 0 0 0 0 0 0 0 0 0 0 0 0 0 0 0 0
0 0 0 0 0 0 0 0 0 0 0 0 0 0 0 0 0 0 0 0 0 0 0 0 0 0 0 0 0 0 0 0 0 0 0 0 0 0 0 0 0 0 0
0 0 0 0 0 0 0 0 0 0 0 0 0 0 0 0 0 0 0 0 0 0 0 0 0 0 0 0 0 0 0 0 0 0 0 0 0 0 0 0 0 0 0
0 0 0 0 0 0 0 0 0 0 0 0 0 0 0 0 0 0 0 0 0 0 0 0 0 0 0 0 0 0 0 0 0 0 0 0 0 0 0 0 0 0 0
Wind_Speed
40 42 38 37 36 41 42 41 37 31 28 25 22 22 21 19 16 14 16 13 8 8 9 10 12 13 16 18 20 22 23 24 25 25 24 28 29 35 35 35 37 38 38
42 44 43 35 35 37 41 40 36 33 30 26 22 21 20 19 17 14 13 11 8 7 6 7 10 13 16 18 20 22 24 25 24 27 26 29 30 34 35 37 39 39 39
43 44 45 36 34 33 37 36 37 32 30 26 24 22 21 18 17 15 12 9 7 6 5 6 9 12 16 18 20 22 24 25 26 27 29 28 29 33 37 38 40 41 38
43 40 40 37 33 33 32 30 36 31 28 25 23 20 18 16 14 8 8 8 4 3 5 8 10 13 16 17 20 22 24 25 28 29 30 30 30 34 36 41 43 42 39
43 40 39 32 34 32 29 30 32 30 25 23 19 16 15 14 16 8 11 6 3 1 5 9 12 15 16 18 20 22 23 26 28 30 31 30 34 38 43 42 43 43 38
41 40 38 33 33 35 29 26 30 28 24 22 20 17 12 11 8 10 8 3 3 2 6 10 13 16 17 19 21 23 25 27 30 30 31 33 36 38 41 43 43 47 45
42 41 38 34 34 36 28 24 26 28 24 22 19 18 15 11 10 4 5 5 2 4 8 11 14 16 18 20 22 24 27 28 28 29 31 34 37 40 41 42 43 42 39
43 43 42 36 29 31 27 24 23 25 24 22 19 17 14 12 11 11 9 7 6 7 11 13 15 17 18 20 22 25 27 29 30 30 31 34 36 37 38 38 39 36 36
44 42 39 24 27 28 27 25 23 25 22 20 18 20 18 15 20 15 11 8 11 10 12 16 17 18 20 21 23 25 28 30 29 31 33 35 37 38 39 39 41 45 43
45 42 29 26 26 29 28 25 25 24 24 23 22 19 19 17 18 17 13 11 12 12 15 18 19 21 22 24 25 26 29 30 30 33 35 36 38 39 40 39 38 42 43
45 29 28 28 30 31 29 27 25 25 29 23 21 19 21 20 18 14 13 14 16 17 18 19 21 22 24 26 27 28 28 28 32 34 36 37 38 40 39 39 39 36 33
24 29 30 33 34 31 28 28 28 32 29 27 25 22 20 17 15 14 14 17 19 20 20 21 22 24 25 27 27 28 30 31 34 37 37 39 40 41 41 40 36 29 25
28 30 30 29 26 21 21 24 33 30 29 28 27 25 21 16 14 18 21 21 19 20 21 22 22 24 26 28 28 30 31 33 36 37 38 38 40 39 37 35 32 28 28
29 30 30 24 21 19 18 33 30 32 32 29 26 24 20 17 16 19 22 19 20 19 20 22 24 25 27 27 28 30 33 35 35 35 35 38 38 37 39 37 29 30 35
26 26 26 23 21 28 30 29 29 27 29 28 27 21 27 26 23 21 22 20 21 22 23 23 25 27 27 27 29 32 34 34 35 34 39 40 41 41 41 37 38 40 38
28 27 28 30 36 35 35 32 28 28 27 23 22 20 18 24 24 22 22 25 25 23 23 25 26 26 25 29 29 32 32 34 34 38 39 39 41 41 37 40 43 44 29
33 33 35 39 35 34 32 32 32 26 24 22 21 25 25 26 24 26 26 24 22 23 25 25 25 25 28 28 30 30 32 33 35 37 37 38 40 35 40 44 44 44 32
40 38 37 42 42 39 37 35 34 27 32 28 18 21 24 27 26 26 25 24 23 23 24 25 26 27 28 29 29 30 32 34 35 36 37 38 38 36 40 44 42 38 34
41 41 39 38 36 33 33 29 25 23 22 22 21 20 22 23 23 23 22 22 25 26 26 26 26 27 28 28 29 30 32 33 34 35 37 37 37 37 40 40 38 29 29
35 32 35 34 32 28 26 23 23 22 21 18 20 22 19 19 22 22 23 24 26 27 26 26 27 28 28 29 29 30 31 33 34 35 36 37 37 38 39 40 40 43 34
32 32 27 24 23 24 22 22 20 20 20 23 23 20 23 24 23 24 25 25 26 26 26 27 28 27 28 28 29 30 31 32 33 34 34 35 37 38 38 38 39 40 40
27 24 22 22 23 21 20 19 18 21 22 24 23 23 23 24 25 25 25 25 25 26 26 27 27 28 28 28 29 30 31 32 32 32 33 35 36 36 37 37 39 40 41
21 20 20 20 20 21 19 17 19 21 23 23 24 25 25 25 25 25 25 25 24 25 25 25 26 27 27 27 28 30 30 30 30 31 33 34 35 36 36 37 38 39 39
23 19 19 18 17 17 19 21 23 24 24 24 25 25 25 25 24 24 24 23 23 23 24 25 26 27 27 28 28 28 28 29 30 31 32 33 33 34 34 36 37 38 38
17 18 17 17 18 21 24 25 25 24 24 24 24 25 24 23 23 23 22 21 21 22 23 24 25 26 27 27 27 28 30 31 31 31 31 31 32 33 34 34 36 36 36
16 15 13 16 19 23 24 24 22 22 23 23 23 23 23 22 22 21 21 20 21 21 21 22 25 26 25 26 27 29 30 31 31 32 31 31 32 32 33 34 35 35 35
Wind_Direction
264 258 255 253 250 245 242 241 239 241 242 238 235 235 229 233 224 230 243 249 255 280 307 332 334 347 348 351 353 354 353 353 351 353 356 356 356 354 355 356 354 351 350
264 259 255 251 248 245 242 240 237 237 239 237 236 233 232 232 230 215 214 236 245 272 309 340 344 349 353 353 355 355 357 358 358 355 358 358 357 357 356 354 354 353 351
261 259 254 247 243 242 242 236 235 233 234 234 234 234 233 226 231 223 206 220 248 283 319 346 351 357 353 354 356 359 359 1 3 1 359 1 0 360 356 355 355 356 357
260 262 254 244 238 237 237 233 230 226 227 230 232 233 231 230 229 199 210 205 225 283 324 347 1 3 3 0 360 1 4 4 2 3 2 2 1 359 358 353 354 358 358
257 258 253 243 235 229 227 226 223 220 220 218 220 225 229 237 216 194 214 217 188 129 343 2 9 13 10 10 7 8 9 5 5 4 4 4 0 358 355 355 354 357 2
260 258 253 244 231 225 217 216 214 211 210 210 215 215 209 220 187 171 153 179 204 61 30 18 17 18 18 21 20 15 12 9 6 7 6 2 0 357 356 358 358 357 357
258 255 249 240 227 220 209 204 202 206 205 206 208 205 190 184 192 94 118 184 112 51 40 35 21 22 25 25 19 17 16 15 14 11 6 3 1 358 359 359 1 2 4
249 241 236 234 214 206 193 190 190 196 198 201 191 181 180 167 148 137 148 127 87 49 44 39 37 33 28 23 22 19 17 15 14 12 8 4 3 3 4 5 4 7 8
239 234 230 213 201 197 189 185 185 186 188 185 185 176 159 144 128 133 135 115 81 54 42 43 42 35 28 31 25 22 20 16 16 13 9 7 7 8 8 7 6 3 5
227 227 215 194 193 194 189 185 184 173 172 161 151 147 137 148 135 135 119 97 78 61 46 43 40 35 36 30 27 24 20 19 18 14 9 9 11 11 10 11 12 9 7
217 210 194 189 188 187 188 186 171 162 149 150 147 136 135 147 139 125 108 90 81 68 60 49 45 43 34 29 28 28 27 26 17 12 9 11 13 12 14 14 14 18 21
172 178 177 180 185 185 181 189 166 157 146 143 135 136 132 143 129 112 95 84 78 73 62 58 49 40 35 35 33 34 30 24 13 11 13 13 12 10 13 15 21 28 32
153 160 165 167 170 162 175 179 165 146 143 144 135 135 144 141 122 98 92 85 74 66 62 55 47 41 41 38 37 35 27 18 14 14 15 16 13 15 20 24 29 30 33
142 150 153 146 160 162 142 147 149 136 133 132 141 141 135 123 110 97 93 81 74 62 55 51 48 47 44 48 42 30 21 20 17 19 24 19 22 24 21 24 30 29 28
143 143 136 124 125 127 136 142 135 136 140 145 156 140 113 107 101 97 94 85 77 73 64 55 51 49 46 48 34 25 20 18 20 26 14 16 14 14 15 25 24 21 24
139 131 119 120 127 127 127 124 126 132 144 140 140 131 111 100 100 93 87 87 82 73 59 53 52 50 52 40 35 23 22 19 21 14 16 15 13 15 24 21 15 12 336
116 113 122 129 134 133 130 127 124 130 126 124 114 101 100 100 94 91 85 78 67 62 58 52 56 58 44 40 31 29 24 21 17 18 16 17 16 28 20 11 15 10 338
125 126 129 139 142 143 143 142 145 133 103 100 115 104 96 93 90 87 81 71 61 50 57 63 58 50 45 39 35 27 23 16 18 16 17 16 20 27 20 10 20 353 341
134 135 136 139 141 140 142 139 137 120 117 113 104 95 89 86 81 74 67 64 67 67 63 59 53 49 45 40 32 26 21 17 16 14 15 16 19 22 20 23 29 38 338
135 134 138 138 139 137 139 125 127 118 110 110 98 92 88 80 76 70 67 68 69 68 63 57 50 47 44 37 30 23 19 15 12 13 13 12 14 16 17 20 21 12 343
140 140 134 126 126 110 130 131 119 109 101 94 90 87 85 82 77 76 76 74 71 68 60 54 50 45 40 32 28 25 21 17 17 17 16 14 9 7 16 21 21 20 21
142 139 134 109 108 131 121 118 108 98 93 90 87 84 83 82 80 78 77 77 72 64 60 53 48 38 31 28 27 25 21 19 18 19 17 13 12 12 15 17 15 13 11
137 115 120 115 112 108 107 104 96 90 88 86 88 90 87 84 81 80 79 72 70 65 57 48 38 34 34 31 27 24 22 24 24 21 16 14 12 11 12 11 10 6 3
98 119 126 123 121 108 98 92 89 88 88 88 90 89 87 83 79 76 73 75 70 60 49 41 39 38 35 30 27 27 28 25 22 21 18 16 13 10 10 7 6 4 4
120 123 123 112 101 94 91 90 90 88 86 85 85 86 85 81 76 74 75 69 62 54 49 46 41 35 31 29 28 25 21 18 20 20 19 18 15 11 7 5 1 360 0
131 127 121 100 91 89 88 88 85 84 85 84 84 84 84 83 81 77 73 67 59 55 52 44 38 34 35 33 27 23 21 20 20 17 20 19 15 12 8 3 357 358 356